Weather History for Fort Campbell, KY

Change the Weather History Date:

Friday, March 8, 2013

  Actual Average Record
Temperature  
Mean Temperature 40 °F -  
Max Temperature 53 °F 52 °F 77 °F (1998)
Min Temperature 26 °F 33 °F 20 °F (2008)
Degree Days  
Heating Degree Days 26    
Moisture  
Dew Point 27 °F    
Average Humidity 64    
Maximum Humidity 99    
Minimum Humidity 34    
Precipitation  
Precipitation 0.00 in - - ()
Sea Level Pressure  
Sea Level Pressure 30.37 in    
Wind  
Wind Speed 6 mph (ENE)    
Max Wind Speed 13 mph    
Max Gust Speed -    
Visibility 10 miles    
Events      
Averages and records for this station are not official NWS values.
T = Trace of Precipitation, MM = Missing Value Source: NWS Daily Summary

Daily Weather History Graph

Daily Weather History Graph

Search for Another Location

Airport:

Trip Planner

Search our weather history database for the weather conditions in past years. The results will help you decide how hot, cold, wet, or windy it might be!

Date:

Astronomy

Mar. 08, 2013 Rise Set
Actual Time 6:10 AM CST 5:51 PM CST
Civil Twilight 5:44 AM CST 6:17 PM CST
Nautical Twilight 5:14 AM CST 6:47 PM CST
Astronomical Twilight 4:44 AM CST 7:17 PM CST
Moon 3:50 AM CST (3/8) 2:49 PM CST (3/8)
Length of Visible Light 12h 32m
Length of Day
11h 40m
Waning Crescent, 11% of the Moon is Illuminated
Mar 8
Waning Crescent
Mar 11
New
Mar 19
First Quarter
Mar 27
Full
Apr 2
Last Quarter

Hourly Weather History & Observations

Time (CST) Temp. Windchill Dew Point Humidity Pressure Visibility Wind Dir Wind Speed Gust Speed Precip Events Conditions
12:55 AM 28.9 °F 25.2 °F 25.9 °F 88% 30.39 in 10.0 mi ENE 3.5 mph - N/A   Clear
1:55 AM 27.3 °F 22.0 °F 26.1 °F 95% 30.39 in 10.0 mi NE 4.6 mph - N/A   Clear
2:55 AM 26.6 °F 21.2 °F 26.2 °F 99% 30.38 in 10.0 mi ENE 4.6 mph - N/A   Clear
3:55 AM 27.3 °F 22.0 °F 26.2 °F 96% 30.39 in 10.0 mi NE 4.6 mph - N/A   Clear
4:55 AM 27.5 °F 21.1 °F 26.8 °F 97% 30.41 in 10.0 mi NNE 5.8 mph - N/A   Clear
5:55 AM 26.1 °F 21.9 °F 25.9 °F 99% 30.43 in 10.0 mi NNE 3.5 mph - N/A   Clear
6:55 AM 28.2 °F 21.0 °F 28.0 °F 99% 30.43 in 10.0 mi NE 6.9 mph - N/A   Clear
7:55 AM 33.8 °F 25.8 °F 29.1 °F 83% 30.43 in 10.0 mi East 10.4 mph - N/A   Clear
8:55 AM 37.4 °F 29.3 °F 27.7 °F 68% 30.44 in 10.0 mi East 12.7 mph - N/A   Clear
9:55 AM 39.7 °F 34.3 °F 28.2 °F 63% 30.45 in 10.0 mi East 8.1 mph - N/A   Clear
10:55 AM 43.2 °F 38.4 °F 28.6 °F 56% 30.45 in 10.0 mi East 8.1 mph - N/A   Clear
11:55 AM 47.1 °F - 29.8 °F 51% 30.40 in 10.0 mi ENE 10.4 mph - N/A   Clear
12:55 PM 48.4 °F - 29.7 °F 48% 30.38 in 10.0 mi ENE 9.2 mph - N/A   Clear
1:55 PM 51.4 °F - 27.1 °F 39% 30.34 in 10.0 mi East 9.2 mph - N/A   Clear
2:55 PM 53.1 °F - 26.1 °F 35% 30.33 in 10.0 mi ENE 11.5 mph - N/A   Clear
3:55 PM 53.1 °F - 25.9 °F 35% 30.31 in 10.0 mi East 11.5 mph - N/A   Clear
4:55 PM 52.3 °F - 24.6 °F 34% 30.32 in 10.0 mi East 9.2 mph - N/A   Clear
5:55 PM 48.9 °F - 26.1 °F 41% 30.32 in 10.0 mi East 5.8 mph - N/A   Clear
6:55 PM 45.7 °F 42.7 °F 26.1 °F 46% 30.32 in 10.0 mi East 5.8 mph - N/A   Clear
7:55 PM 44.8 °F 41.0 °F 25.2 °F 46% 30.31 in 10.0 mi East 6.9 mph - N/A   Clear
8:55 PM 43.2 °F 39.0 °F 25.7 °F 50% 30.30 in 10.0 mi East 6.9 mph - N/A   Clear
9:55 PM 42.4 °F 38.1 °F 26.2 °F 53% 30.30 in 10.0 mi East 6.9 mph - N/A   Partly Cloudy
10:55 PM 40.8 °F 36.2 °F 27.7 °F 60% 30.29 in 10.0 mi East 6.9 mph - N/A   Partly Cloudy
11:55 PM 40.5 °F 35.8 °F 28.9 °F 64% 30.29 in 10.0 mi East 6.9 mph - N/A   Partly Cloudy